Wetbulb
54.80 54.40 54.05 52.86 53.94 56.77 57.10 57.86 58.44 59.06 60.29 61.28 60.24 59.15 59.35 59.59 60.08 60.02 59.90 60.07 59.54 59.69 59.88 61.04 60.76 63.96 62.74 64.49 63.94 63.83 62.67 61.56
53.84 53.56 53.20 53.63 54.92 55.27 55.94 58.06 58.55 58.79 60.16 59.99 59.73 60.03 59.39 58.93 59.26 59.78 59.35 58.87 58.46 58.78 59.83 60.48 60.02 60.95 60.84 61.10 61.13 61.19 61.88 61.77
53.63 53.31 53.42 53.38 54.68 56.64 57.36 58.12 59.31 60.26 60.18 60.08 59.75 59.66 59.80 59.38 59.09 59.93 60.07 58.79 58.35 61.25 61.35 60.65 59.22 59.66 59.89 59.85 60.35 60.76 60.58 61.02
52.49 53.33 53.26 53.99 55.58 57.15 57.59 58.35 59.87 60.53 59.78 59.66 59.98 59.73 60.71 60.34 60.25 60.48 60.49 59.57 59.83 60.78 58.42 58.80 58.06 58.34 59.21 59.43 59.67 59.39 59.80 59.91
54.33 55.03 54.80 54.87 54.74 57.14 57.25 58.69 59.57 60.01 59.56 59.50 59.46 60.09 61.19 60.55 60.57 60.44 60.17 59.65 59.56 59.00 58.03 58.07 58.39 58.20 58.33 58.83 58.86 59.28 58.99 59.75
54.59 55.01 54.75 53.69 54.82 56.39 57.75 60.92 58.75 59.00 58.11 59.13 60.47 61.08 60.49 60.35 60.19 60.45 60.90 60.85 60.11 58.60 57.95 58.01 58.40 57.56 57.56 57.72 57.91 57.93 58.21 58.51
53.56 55.23 55.56 53.96 55.77 55.98 57.07 57.75 57.99 58.06 59.22 59.64 60.31 60.61 60.14 60.89 60.43 60.27 60.20 60.38 60.14 58.22 58.31 58.27 58.10 57.26 56.76 57.12 56.64 57.58 57.08 57.56
54.60 55.47 55.15 54.30 55.88 56.87 57.74 58.10 58.21 59.48 59.38 58.87 59.93 59.48 60.77 61.11 61.06 60.27 60.24 59.84 60.15 58.84 58.33 58.22 57.96 56.38 56.14 56.74 56.30 57.42 57.46 57.42
55.10 56.56 55.52 55.03 56.24 57.19 57.29 57.69 58.05 58.70 57.19 58.00 57.48 58.04 59.26 60.27 61.46 61.41 61.30 59.65 59.70 58.29 58.39 58.02 57.48 56.36 56.02 56.56 56.74 56.60 56.88 57.43
55.44 55.08 54.53 55.06 56.22 57.33 57.68 58.12 57.60 58.23 57.43 59.53 58.53 58.87 59.38 59.92 60.36 60.79 61.45 60.78 61.16 59.41 58.78 57.92 57.56 56.74 56.18 56.82 56.82 55.88 56.28 57.57
54.33 54.98 53.79 54.27 55.59 56.96 58.22 58.04 58.46 57.49 58.98 59.22 58.65 58.45 58.64 59.36 59.81 60.53 59.88 60.39 61.63 60.15 59.31 58.06 57.78 56.96 56.18 56.20 56.90 56.64 55.74 57.06
54.62 54.52 53.26 54.06 54.67 56.60 58.25 58.43 57.27 58.23 58.89 58.21 57.68 57.04 56.24 57.72 58.18 58.87 59.46 59.98 60.45 60.17 59.31 58.81 58.13 57.24 56.28 57.06 58.26 57.52 57.40 56.40
53.89 54.54 54.85 54.65 56.59 56.41 57.81 57.00 57.90 59.15 58.50 58.40 58.50 56.59 57.68 58.08 57.60 57.76 58.09 60.06 61.12 60.38 59.35 58.60 57.61 57.48 57.26 58.57 57.50 57.92 58.04 57.83
53.63 55.60 55.16 54.69 55.36 56.06 56.71 55.62 56.69 58.46 58.82 58.67 58.00 56.99 57.15 56.62 56.32 56.86 57.12 57.75 60.31 59.07 59.60 58.04 57.82 57.39 57.78 57.91 58.15 58.25 57.48 59.18
54.45 54.70 54.16 53.85 54.38 55.49 55.96 56.24 56.65 57.63 57.82 58.45 57.54 58.03 57.09 56.02 55.94 56.52 55.72 55.92 56.24 56.72 57.75 58.34 57.47 58.27 59.16 58.84 58.51 59.88 57.69 59.38
54.32 54.84 53.98 53.83 54.47 55.32 55.71 55.66 54.72 55.45 57.44 57.86 57.27 58.37 57.38 56.12 57.08 57.14 56.54 56.14 56.52 57.08 58.31 58.66 59.36 59.70 60.28 59.50 60.32 60.60 59.79 59.31
54.04 54.48 53.31 52.27 53.54 54.75 55.03 55.87 55.12 54.68 57.02 57.80 58.25 58.89 58.06 57.56 57.18 57.46 57.10 56.98 58.20 58.29 58.60 58.24 59.46 59.97 59.63 60.57 60.82 60.50 61.14 60.84
54.19 54.16 52.87 51.93 53.52 53.36 53.11 56.13 54.69 56.20 57.21 56.55 59.32 60.78 59.46 58.71 57.78 57.36 57.40 57.08 57.57 58.33 58.65 58.91 59.27 59.59 59.71 60.59 59.92 59.68 61.44 61.81
54.11 53.35 53.07 52.43 52.60 51.78 53.24 55.48 54.70 55.20 56.53 56.85 60.32 60.23 59.99 59.61 58.86 57.28 57.78 57.59 58.11 58.85 59.15 59.51 59.65 59.60 59.63 59.77 59.22 60.00 61.19 61.46
54.00 53.36 53.07 52.18 51.91 52.36 54.99 54.51 54.65 54.60 55.98 56.09 58.77 60.32 59.63 59.25 58.50 58.24 58.34 58.12 58.60 59.13 59.95 60.19 60.23 59.68 59.86 60.47 60.21 60.50 60.32 60.34
MSLP
1007.00 1007.37 1007.69 1007.88 1008.40 1008.98 1009.57 1010.01 1010.29 1010.39 1010.78 1011.03 1011.31 1011.53 1011.52 1011.55 1011.45 1011.47 1011.54 1011.76 1011.91 1011.80 1011.64 1011.48 1011.28 1011.13 1011.17 1011.12 1011.36 1011.66 1011.98 1012.31
1006.70 1007.31 1007.72 1008.00 1008.18 1008.72 1009.31 1009.80 1009.98 1010.33 1010.38 1010.87 1011.06 1011.21 1011.16 1011.24 1011.22 1011.26 1011.51 1011.57 1011.63 1011.60 1011.48 1011.43 1011.37 1011.27 1011.27 1011.32 1011.46 1011.57 1011.86 1012.04
1006.22 1006.67 1007.13 1007.63 1008.31 1008.81 1009.13 1009.52 1009.80 1010.11 1010.28 1010.56 1010.80 1010.93 1010.90 1010.85 1010.93 1010.98 1010.99 1011.23 1011.34 1011.24 1011.28 1011.22 1011.21 1011.12 1011.18 1011.36 1011.46 1011.63 1011.91 1011.89
1005.97 1006.46 1006.83 1007.40 1007.74 1008.40 1008.60 1008.99 1009.39 1009.57 1010.05 1010.33 1010.46 1010.33 1010.28 1010.44 1010.49 1010.48 1010.51 1010.62 1010.81 1011.03 1011.15 1011.13 1011.14 1010.92 1010.93 1011.05 1011.29 1011.54 1011.76 1011.93
1004.84 1005.22 1005.93 1006.52 1007.33 1008.04 1008.49 1008.70 1008.88 1009.23 1009.66 1009.88 1009.96 1009.89 1009.90 1010.18 1010.07 1010.04 1010.08 1010.19 1010.42 1010.79 1010.84 1010.88 1010.85 1010.62 1010.70 1010.91 1011.21 1011.45 1011.72 1011.87
1004.16 1004.82 1005.54 1006.35 1007.12 1007.77 1008.03 1008.24 1008.61 1008.84 1009.34 1009.56 1009.61 1009.56 1009.61 1009.62 1009.60 1009.62 1009.66 1009.83 1010.07 1010.34 1010.43 1010.44 1010.28 1010.41 1010.61 1010.81 1011.08 1011.37 1011.57 1011.75
1004.21 1004.56 1005.14 1005.96 1006.80 1007.33 1007.80 1008.01 1008.39 1008.68 1008.99 1009.24 1009.31 1009.29 1009.34 1009.23 1009.21 1009.36 1009.40 1009.52 1009.66 1009.93 1010.11 1010.08 1009.94 1010.28 1010.43 1010.59 1010.91 1011.14 1011.49 1011.60
1003.71 1004.61 1005.54 1006.16 1006.68 1007.05 1007.59 1007.94 1008.07 1008.36 1008.72 1008.94 1009.03 1009.09 1009.00 1008.83 1009.00 1009.08 1009.13 1009.24 1009.29 1009.52 1009.71 1009.79 1009.78 1010.09 1010.34 1010.52 1010.74 1011.01 1011.20 1011.37
1004.09 1005.06 1005.73 1006.32 1006.65 1007.13 1007.76 1008.00 1008.01 1008.32 1008.78 1009.03 1009.20 1009.21 1008.93 1008.77 1008.71 1008.65 1008.76 1008.89 1008.96 1009.21 1009.34 1009.51 1009.59 1009.89 1010.08 1010.31 1010.65 1010.95 1011.26 1011.43
1004.21 1005.19 1005.79 1006.03 1006.62 1007.23 1007.72 1007.86 1007.96 1008.19 1008.49 1008.65 1008.82 1008.86 1008.80 1008.58 1008.46 1008.53 1008.30 1008.37 1008.51 1008.81 1009.06 1009.26 1009.37 1009.75 1009.95 1010.15 1010.46 1010.91 1011.19 1011.33
1004.17 1005.17 1005.66 1006.16 1006.84 1007.23 1007.52 1007.74 1007.73 1007.94 1008.15 1008.46 1008.67 1008.78 1008.77 1008.53 1008.58 1008.51 1008.18 1008.12 1008.09 1008.40 1008.84 1009.06 1009.26 1009.59 1009.79 1009.88 1010.19 1010.59 1011.17 1011.30
1003.68 1004.85 1005.62 1006.07 1006.62 1006.94 1007.23 1007.54 1007.58 1007.76 1008.00 1008.41 1008.64 1008.88 1008.87 1008.58 1008.58 1008.39 1008.28 1008.23 1008.23 1008.42 1008.71 1008.98 1009.14 1009.36 1009.54 1009.59 1009.72 1010.11 1010.60 1011.19
1003.44 1004.50 1005.31 1005.91 1006.43 1006.82 1007.14 1007.36 1007.50 1007.62 1007.89 1008.20 1008.52 1008.76 1008.61 1008.60 1008.55 1008.54 1008.41 1008.40 1008.34 1008.56 1008.78 1008.99 1009.17 1009.22 1009.33 1009.38 1009.66 1009.94 1010.18 1010.70
1003.80 1004.64 1005.33 1005.96 1006.35 1006.81 1007.10 1007.31 1007.55 1007.63 1007.85 1008.16 1008.39 1008.60 1008.52 1008.69 1008.78 1008.72 1008.66 1008.57 1008.55 1008.74 1008.89 1009.06 1009.26 1009.20 1009.41 1009.48 1009.69 1010.03 1010.15 1010.31
1003.83 1004.74 1005.54 1006.00 1006.53 1006.85 1007.11 1007.29 1007.61 1007.68 1007.96 1008.19 1008.25 1008.40 1008.51 1008.74 1008.86 1008.86 1008.88 1008.87 1008.99 1009.02 1009.08 1009.25 1009.33 1009.30 1009.39 1009.50 1009.68 1009.92 1010.24 1010.37
1004.01 1004.78 1005.34 1005.86 1006.37 1006.71 1006.91 1007.25 1007.52 1007.66 1007.93 1008.11 1008.14 1008.22 1008.59 1008.73 1008.77 1008.77 1009.00 1009.07 1009.12 1009.15 1009.27 1009.38 1009.35 1009.41 1009.54 1009.68 1009.90 1010.17 1010.30 1010.51
1003.93 1004.76 1005.24 1005.75 1006.27 1006.65 1006.77 1007.18 1007.39 1007.68 1007.87 1007.99 1008.16 1008.20 1008.44 1008.62 1008.74 1008.79 1009.00 1009.11 1009.18 1009.20 1009.47 1009.58 1009.65 1009.73 1009.72 1009.88 1010.04 1010.44 1010.57 1010.80
1004.04 1004.60 1005.16 1005.61 1006.07 1006.34 1006.62 1006.87 1007.28 1007.52 1007.63 1007.80 1007.87 1007.91 1008.26 1008.53 1008.77 1008.83 1008.97 1009.19 1009.23 1009.28 1009.52 1009.69 1009.81 1009.98 1010.02 1009.93 1010.41 1010.72 1010.83 1011.22
1003.71 1004.41 1004.86 1005.33 1005.88 1006.26 1006.53 1006.86 1007.28 1007.50 1007.52 1007.65 1007.79 1007.98 1008.23 1008.62 1008.83 1008.90 1008.93 1009.19 1009.36 1009.38 1009.51 1009.79 1009.98 1010.15 1010.40 1010.47 1010.94 1011.04 1011.19 1011.52
1003.53 1004.18 1004.69 1005.33 1005.84 1006.27 1006.44 1006.75 1007.08 1007.26 1007.38 1007.58 1007.68 1007.91 1008.36 1008.63 1008.76 1008.77 1008.97 1009.16 1009.45 1009.50 1009.60 1009.82 1010.18 1010.45 1010.63 1010.91 1011.24 1011.70 1011.86 1012.10
Wind_Speed
11 9 9 10 7 5 8 8 7 8 6 4 2 1 3 3 5 5 4 3 3 3 3 4 3 6 3 7 7 5 6 4
11 10 7 10 9 9 8 8 7 6 4 4 4 3 3 3 4 5 4 3 4 4 3 4 4 3 3 3 3 5 6 6
9 9 8 9 9 8 9 9 7 6 5 3 3 4 4 5 4 5 4 4 4 3 3 3 3 3 3 4 4 4 5 5
6 9 11 10 11 10 9 9 8 7 5 5 5 4 5 4 4 5 6 5 4 4 4 4 4 3 4 4 4 4 4 4
18 17 17 15 9 10 9 9 8 8 7 6 4 4 4 4 4 6 5 5 5 5 4 4 5 3 4 4 4 3 4 3
12 14 12 10 10 11 9 7 8 7 5 5 4 4 4 4 4 4 6 6 6 5 4 4 4 3 4 3 4 3 4 4
8 14 14 13 11 10 9 8 8 7 5 3 4 6 4 4 4 4 5 5 5 5 4 4 4 3 4 3 2 3 3 4
12 10 11 10 9 9 8 6 7 6 2 1 2 3 3 3 4 4 5 5 5 4 3 5 3 3 3 2 3 2 2 3
8 10 10 9 8 9 8 7 6 3 1 1 1 3 2 3 3 6 6 5 5 5 4 4 3 4 4 4 3 4 3 2
11 11 8 8 9 8 8 7 6 4 2 2 2 2 3 3 1 3 4 5 6 5 5 4 4 3 4 5 4 2 2 4
14 13 10 9 9 9 8 8 7 4 3 2 1 2 2 1 1 3 2 2 5 5 4 4 4 3 4 4 5 5 3 1
14 13 10 10 8 8 8 7 7 4 5 2 3 2 2 1 1 2 0 1 2 3 4 4 4 3 5 5 5 4 4 4
17 14 13 7 8 8 7 8 6 6 5 3 3 1 1 1 1 2 0 1 0 3 4 4 3 1 3 5 5 5 3 4
9 11 10 8 7 7 7 7 5 5 4 4 5 4 4 4 1 1 1 1 1 3 4 4 2 3 4 3 4 5 3 4
15 14 9 8 8 8 7 7 5 5 4 6 6 6 6 6 2 1 1 2 2 3 3 3 2 2 4 4 4 4 5 3
13 12 10 9 9 9 8 7 5 4 5 6 4 6 4 4 3 2 2 2 3 3 4 3 3 3 5 5 4 3 4 4
14 11 9 9 8 9 9 8 6 4 6 6 4 5 6 5 4 4 3 3 2 4 4 3 2 3 5 6 4 5 6 5
12 11 9 7 8 7 7 7 8 6 6 6 5 5 5 5 4 5 5 3 2 4 4 4 4 4 5 6 5 5 8 5
13 10 9 9 8 8 7 7 7 6 5 4 5 5 5 5 4 4 5 4 4 4 5 5 5 6 6 7 6 6 9 8
12 11 9 9 9 7 8 7 7 7 5 4 5 6 5 6 5 5 4 5 4 5 5 5 6 6 6 7 8 10 10 8
Wind_Direction
171 191 193 197 166 138 151 147 160 140 140 172 183 205 211 217 222 228 221 227 254 268 288 299 291 273 278 237 218 202 201 172
183 198 182 157 153 150 152 146 134 145 137 158 182 170 182 215 230 238 216 225 236 250 242 264 261 247 238 214 193 188 184 180
196 178 163 147 143 154 159 155 147 160 146 180 186 206 213 225 229 219 208 215 228 222 250 250 245 228 217 211 200 195 198 198
157 168 164 163 154 160 157 155 162 151 175 196 213 216 236 237 241 228 234 209 208 220 234 237 244 208 217 202 200 197 205 208
187 175 168 163 162 154 162 161 160 163 194 209 224 232 231 236 238 227 225 198 202 213 224 236 238 220 218 212 210 194 209 217
183 173 163 156 147 160 165 157 162 176 202 230 237 237 233 238 228 220 223 210 210 210 217 232 234 215 202 195 178 200 215 211
170 177 162 156 156 152 151 141 160 177 207 221 248 247 243 241 220 211 222 222 222 212 221 232 219 212 204 195 164 164 189 225
172 151 145 146 146 139 137 150 152 161 186 296 288 276 262 230 216 211 217 224 223 212 224 229 189 191 188 162 157 185 186 218
140 144 144 139 130 128 148 152 163 139 144 283 292 248 263 253 198 215 224 227 228 210 200 220 186 183 194 171 156 179 233 165
140 152 154 144 145 152 157 172 159 172 150 205 191 228 262 239 242 252 239 221 213 199 202 214 189 164 180 174 148 118 180 185
159 165 159 142 149 165 169 176 166 163 149 114 43 15 302 356 273 260 244 200 171 184 198 205 178 176 190 175 162 151 153 86
160 160 156 155 169 166 163 167 158 154 155 132 173 191 254 256 235 257 209 139 169 163 173 175 173 180 189 183 173 156 142 158
163 162 155 164 155 160 164 151 153 165 178 137 144 194 257 106 76 106 63 347 139 164 154 175 154 161 172 179 158 150 149 136
125 139 149 150 149 144 148 149 160 189 187 159 141 132 124 101 119 108 300 57 66 118 122 140 148 142 156 190 148 138 136 127
146 153 151 151 152 153 147 148 175 211 139 162 148 149 122 114 150 133 83 83 76 118 101 105 130 116 133 166 152 137 155 170
151 156 160 157 156 157 152 161 190 193 151 174 169 145 126 132 150 136 95 105 123 128 107 96 52 83 86 97 107 107 109 106
149 161 159 153 155 166 163 171 199 184 170 165 176 156 139 151 128 109 114 129 133 122 119 126 127 106 100 102 99 98 84 93
157 162 158 159 164 164 169 177 179 184 198 152 191 163 144 154 136 133 146 139 124 134 129 145 133 110 109 98 85 78 97 98
162 161 166 161 157 159 168 170 169 173 201 163 178 146 148 147 152 159 154 145 151 149 147 140 139 124 123 97 83 89 101 99
161 162 158 154 163 162 162 161 163 172 172 146 142 130 137 140 154 163 147 154 145 144 135 127 119 117 110 115 109 115 118 113